Domov               UVHVVR             MKGP            O straneh              
ZDRAVSTVENO VARSTVO RASTLIN
  MREŽA AGROMET. POSTAJ
 ► PROGNOSTIČNA OBVESTILA
AGROMETEOROLOŠKI PODATKI -
ARSO
OBVLADOVANJE TVEGANJ ZARADI
NEUGODNIH VREMENSKIH RAZMER
  ► NARAVNE NESREČE
  ► SUŠA/MOČA
  ► NAMAKANJE
  ► ŽLED (gozdarstvo)
KARTOGRAFSKI PRIKAZI
SPLETNE POVEZAVE
PROJEKTI IN PUBLIKACIJE

AGROMETEOROLOŠKA MREŽA: VREMENSKE POSTAJE IN FENOLOŠKA OPAZOVANJA

Pregled podatkov za lokacijo Lendava, meteorološka postaja 42840

Pregled senzorjev na lokaciji

ID Ime Zadnja
vrednost
Datum
zadnje
spremembe
Tip
senzorja
2103 Omočenost lista (U) 8 U 28.6.2017 17:00 A730WET
2104 Temperatura 2 m ( °C) 20,17 °C 28.6.2017 17:00 50YA
2105 Relativna vlaga 2 m (% RH) 84,79 % RH 28.6.2017 17:00 50YA
2106 Padavine 0.2 mm (mm) 2,4 mm 28.6.2017 17:00 Rain-O-Matic

Pregled podatkov zadnjih 24 ur

Zap.
št.
Datum in čas Lendava
Omočenost
lista
Padavine
0.2
mm
Relativna
vlaga
2
m
Temperatura
2
m
0 28.6.2017 16:00 8 2,4 84,79 20,17
1 28.6.2017 15:30 10 5,4 98,04 18,51
2 28.6.2017 15:00 10 4,6 74,87 23,6
3 28.6.2017 14:30 0 0 49,63 28,99
4 28.6.2017 14:00 0 0 52,18 29,35
5 28.6.2017 13:30 0 0 52,31 28,92
6 28.6.2017 13:00 0 0 50,29 29,56
7 28.6.2017 12:30 0 0 48,47 30,09
8 28.6.2017 12:00 0 0 46,09 29,98
9 28.6.2017 11:30 0 0 48,12 29,33
10 28.6.2017 11:00 0 0 50,72 29
11 28.6.2017 10:30 0 0 55,97 27,97
12 28.6.2017 10:00 0 0 57,1 27,16
13 28.6.2017 09:30 0 0 58,14 26,88
14 28.6.2017 09:00 0 0 61,02 26,04
15 28.6.2017 08:30 0 0 67,02 25,05
16 28.6.2017 08:00 0 0 70,22 24,33
17 28.6.2017 07:30 0 0 74,79 22,93
18 28.6.2017 07:00 0 0 75,99 22,08
19 28.6.2017 06:30 0 0 77,49 21,26
20 28.6.2017 06:00 1 0 79,9 20,51
21 28.6.2017 05:30 1 0 80,65 20,49
22 28.6.2017 05:00 2 0 83,49 20,09
23 28.6.2017 04:30 2 0 82,1 20,11
24 28.6.2017 04:00 1 0 79,02 20,53
25 28.6.2017 03:30 1 0 72,18 21,52
26 28.6.2017 03:00 0 0 69,61 21,96
27 28.6.2017 02:30 1 0 67,75 22,09
28 28.6.2017 02:00 1 0 68,98 21,85
29 28.6.2017 01:30 1 0 68,13 22,19
30 28.6.2017 01:00 0 0 66,68 22,68
31 28.6.2017 00:30 1 0 70,61 22,49
32 28.6.2017 00:00 1 0 68,06 22,85
33 27.6.2017 23:30 1 0 67,26 23,14
34 27.6.2017 23:00 1 0 66,91 23,33
35 27.6.2017 22:30 0 0 63,17 24,04
36 27.6.2017 22:00 0 0 64,55 23,97
37 27.6.2017 21:30 0 0 62,49 24,49
38 27.6.2017 21:00 0 0 61,91 24,71
39 27.6.2017 20:30 0 0 61,27 24,9
40 27.6.2017 20:00 0 0 62,22 24,98
41 27.6.2017 19:30 0 0 61,54 25,22
42 27.6.2017 19:00 0 0 57,16 25,78
43 27.6.2017 18:30 0 0 53,02 26,4
44 27.6.2017 18:00 0 0 53,09 26,87
© 2011 Ministrstvo za kmetijstvo, gozdarstvo in prehrano. Vse pravice pridržane.